Regional Weather Roundup
Issued by NWS Cleveland, OH

Home | Current Version | Previous Version | Graphics & Text | Print | Product List | Glossary On
Versions: 1 2 3 4 5 6 7 8 9 10 11 12 13 14 15 16 17 18 19 20 21 22 23 24 25 26 27 28 29 30 31 32 33 34 35 36 37 38 39 40 41 42 43 44 45 46 47 48 49 50
000
ASUS41 KCLE 042002
RWRCLE
OHIO REGIONAL WEATHER ROUNDUP
NATIONAL WEATHER SERVICE CLEVELAND, OH
300 PM EST WED MAR 04 2015

NOTE: "FAIR" INDICATES FEW OR NO CLOUDS BELOW 12,000 FEET WITH NO
SIGNIFICANT WEATHER AND/OR OBSTRUCTIONS TO VISIBILITY.

OHZ001>008-015>018-024>027-034-035-043-044-042100-
   NORTHWEST OHIO

CITY           SKY/WX    TMP DP  RH WIND       PRES   REMARKS
DEFIANCE       CLOUDY    32  20  61 NW15      30.02R WCI  22
FINDLAY        CLOUDY    34  24  67 W15       29.97F WCI  24
TOLEDO EXPRESS CLOUDY    32  20  61 W17G23    29.99R WCI  21
TOLEDO EXEC    CLOUDY    34  22  61 W17       29.98F WCI  23
LIMA           CLOUDY    33  24  69 W15       29.98F HAZE    WCI  23
$$

OHZ009>014-019>023-028>033-038-089-042100-
   NORTHEAST OHIO

CITY           SKY/WX    TMP DP  RH WIND       PRES   REMARKS
CLE-HOPKINS    CLOUDY    34  23  64 NW8       29.96F WCI  27
CLE-LAKEFRONT  CLOUDY    32  25  75 W8        29.94S WCI  25
CUY CO. ARPT   CLOUDY    34  25  69 W14       29.95R WCI  24
LORAIN-ELYRIA  CLOUDY    33  24  69 W10       29.95F WCI  25
ASHTABULA      CLOUDY    32  21  64 W13       29.93R WCI  22
AKRON-CANTON   CLOUDY    34  26  72 W8        29.93S WCI  27
WOOSTER        CLOUDY    33  27  78 W12       29.94R WCI  24
MANSFIELD      CLOUDY    32  24  72 W10G16    29.93F WCI  24
YOUNGSTOWN     CLOUDY    34  26  72 W13       29.91F WCI  25
$$

OHZ042-051>053-060>062-070>072-077>081-042100-
  SOUTHWEST OHIO

CITY           SKY/WX    TMP DP  RH WIND       PRES   REMARKS
CINC-COVINGTON LGT SNOW  34  31  88 NW6       30.00R FOG     WCI  29
CINC-LUNKEN    FLURRIES  36  30  79 N8        30.02S
HAMILTON       CLOUDY    35  30  82 NW13      30.02S HAZE    WCI  26
DAYTON         CLOUDY    34  27  75 NW12      30.01F HAZE    WCI  25
WRIGHT-PAT AFB NOT AVBL
DAYTON GENERAL CLOUDY    34  28  79 NW10      29.98F HAZE    WCI  26
WILMINGTON     CLOUDY    34  28  79 NW13      29.97F HAZE    WCI  25
$$

OHZ036-037-039>041-045>050-054>059-063>069-073>076-082>088-042100-
  CENTRAL AND SOUTHEAST OHIO

CITY           SKY/WX    TMP DP  RH WIND       PRES   REMARKS
COLUMBUS       CLOUDY    34  29  82 NW9       29.97S WCI  27
OSU AIRPORT    CLOUDY    34  29  82 NW7       29.96F HAZE    WCI  28
BOLTON FIELD   CLOUDY    34  30  86 NW8       29.98S FOG     WCI  27
RICKENBACK AFB CLOUDY    34  30  85 NW7       29.97S FOG     WCI  28
NEWARK         CLOUDY    35  29  78 NW13      29.95S WCI  26
MARION         CLOUDY    33  24  69 W9        29.97F HAZE    WCI  25
LANCASTER      CLOUDY    37  31  78 W8        29.97R HAZE
ZANESVILLE     CLOUDY    35  30  82 W3        29.95R HAZE
NEW PHILLY     CLOUDY    37  29  72 NW8       29.95S HAZE
$$



USA.gov is the U.S. government's official web portal to all federal, state and local government web resources and services.